• In Uzbekistan
  • List of Countries
  • For 7 days
  • Water Temperature
  • Satellite Maps
  • Weather Map
  • Weather Widgets
  • user-avatar
    Login

    Hourly Weather Mayrhofen

    Today, 20 February, Monday

    Time Temperature Precipitation Wind Pressure Humidity
    00:00 -10°C° 0 mm 2 mps 615 mmHg 87%
    01:00 -10°C° 0 mm 2 mps 615 mmHg 88%
    02:00 -10°C° 0 mm 2 mps 615 mmHg 88%
    03:00 -10°C° 0 mm 2 mps 615 mmHg 89%
    04:00 -10°C° 0 mm 2 mps 615 mmHg 89%
    05:00 -10°C° 0 mm 2 mps 615 mmHg 90%
    06:00 -9°C° 0 mm 1 mps 615 mmHg 90%
    07:00 -9°C° 0 mm 1 mps 615 mmHg 91%
    08:00 -7°C° 0 mm 1 mps 616 mmHg 90%
    09:00 -4°C° 0 mm 1 mps 617 mmHg 89%
    10:00 -2°C° 0 mm 1 mps 618 mmHg 89%
    11:00 -1°C° 0 mm 1 mps 618 mmHg 88%
    12:00 0°C° 0 mm 1 mps 618 mmHg 86%
    13:00 +1°C° 0 mm 1 mps 618 mmHg 85%
    14:00 +1°C° 0 mm 1 mps 618 mmHg 87%
    15:00 +1°C° 0 mm 1 mps 618 mmHg 89%
    16:00 +1°C° 0 mm 1 mps 617 mmHg 91%
    17:00 -2°C° 0 mm 1 mps 616 mmHg 92%
    18:00 -7°C° 0 mm 1 mps 614 mmHg 94%
    19:00 -10°C° 0 mm 1 mps 613 mmHg 95%
    20:00 -10°C° 0 mm 1 mps 613 mmHg 95%
    21:00 -9°C° 0 mm 1 mps 614 mmHg 94%
    22:00 -9°C° 0 mm 1 mps 614 mmHg 93%
    23:00 -7°C° 0.1 mm 1 mps 615 mmHg 92%

    Tomorrow, 21 February, Tuesday

    Time Temperature Precipitation Wind Pressure Humidity
    00:00 -4°C° 0.1 mm 1 mps 615 mmHg 90%
    01:00 -5°C° 0.1 mm 2 mps 616 mmHg 89%
    02:00 -4°C° 0.4 mm 2 mps 616 mmHg 90%
    03:00 -4°C° 0.4 mm 2 mps 616 mmHg 92%
    04:00 -3°C° 0.4 mm 2 mps 616 mmHg 93%
    05:00 -3°C° 0.2 mm 2 mps 616 mmHg 94%
    06:00 -3°C° 0.2 mm 2 mps 616 mmHg 94%
    07:00 -3°C° 0.2 mm 2 mps 615 mmHg 94%
    08:00 -2°C° 0.1 mm 2 mps 616 mmHg 95%
    09:00 -1°C° 0.1 mm 2 mps 616 mmHg 95%
    10:00 +1°C° 0.1 mm 2 mps 617 mmHg 96%
    11:00 +3°C° 0.2 mm 1 mps 617 mmHg 96%
    12:00 +3°C° 0.2 mm 1 mps 617 mmHg 96%
    13:00 +4°C° 0.2 mm 1 mps 617 mmHg 96%
    14:00 +3°C° 0.2 mm 1 mps 616 mmHg 96%
    15:00 +3°C° 0.2 mm 1 mps 616 mmHg 97%
    16:00 +3°C° 0.2 mm 1 mps 616 mmHg 97%
    17:00 +2°C° 0.2 mm 1 mps 616 mmHg 97%
    18:00 +1°C° 0.2 mm 1 mps 615 mmHg 97%
    19:00 +1°C° 0.2 mm 1 mps 615 mmHg 97%
    20:00 0°C° 0.3 mm 1 mps 615 mmHg 97%
    21:00 0°C° 0.3 mm 1 mps 615 mmHg 97%
    22:00 -1°C° 0.3 mm 1 mps 615 mmHg 97%
    23:00 -2°C° 0.1 mm 1 mps 614 mmHg 97%

    Day after tomorrow, 22 February, Wednesday

    Time Temperature Precipitation Wind Pressure Humidity
    00:00 -3°C° 0.1 mm 1 mps 614 mmHg 97%
    01:00 -4°C° 0.1 mm 1 mps 613 mmHg 97%
    02:00 -4°C° 0 mm 1 mps 613 mmHg 96%
    03:00 -6°C° 0 mm 1 mps 612 mmHg 96%
    04:00 -6°C° 0 mm 1 mps 612 mmHg 96%
    05:00 -6°C° 0 mm 1 mps 612 mmHg 96%
    06:00 -4°C° 0 mm 1 mps 612 mmHg 95%
    07:00 -4°C° 0 mm 1 mps 612 mmHg 95%
    08:00 -2°C° 0 mm 1 mps 613 mmHg 94%
    09:00 +1°C° 0 mm 1 mps 614 mmHg 93%
    10:00 +3°C° 0 mm 1 mps 615 mmHg 93%
    11:00 +4°C° 0 mm 1 mps 615 mmHg 92%
    12:00 +4°C° 0 mm 1 mps 615 mmHg 91%
    13:00 +5°C° 0 mm 1 mps 614 mmHg 91%
    14:00 +5°C° 0 mm 1 mps 614 mmHg 92%
    15:00 +4°C° 0 mm 1 mps 614 mmHg 94%
    16:00 +4°C° 0 mm 1 mps 613 mmHg 95%
    17:00 +2°C° 0 mm 1 mps 613 mmHg 95%
    18:00 0°C° 0 mm 1 mps 612 mmHg 95%
    19:00 -2°C° 0 mm 1 mps 611 mmHg 96%
    20:00 -3°C° 0 mm 1 mps 611 mmHg 95%
    21:00 -3°C° 0 mm 1 mps 611 mmHg 95%
    22:00 -4°C° 0 mm 1 mps 611 mmHg 95%
    23:00 -4°C° 0 mm 1 mps 611 mmHg 95%

    23 February, Thursday

    Time Temperature Precipitation Wind Pressure Humidity
    00:00 -4°C° 0 mm 1 mps 611 mmHg 94%
    01:00 -4°C° 0 mm 1 mps 611 mmHg 94%
    02:00 -4°C° 0 mm 1 mps 611 mmHg 93%
    03:00 -4°C° 0 mm 1 mps 610 mmHg 93%
    04:00 -4°C° 0 mm 1 mps 610 mmHg 92%
    05:00 -4°C° 0 mm 1 mps 610 mmHg 91%
    06:00 -4°C° 0 mm 1 mps 610 mmHg 90%
    07:00 -4°C° 0 mm 1 mps 610 mmHg 88%
    08:00 -2°C° 0 mm 1 mps 611 mmHg 87%
    09:00 0°C° 0 mm 1 mps 612 mmHg 87%
    10:00 +2°C° 0 mm 2 mps 613 mmHg 86%
    11:00 +2°C° 0 mm 2 mps 612 mmHg 86%
    12:00 +3°C° 0 mm 2 mps 612 mmHg 86%
    13:00 +4°C° 0 mm 2 mps 612 mmHg 86%
    14:00 +3°C° 0 mm 2 mps 611 mmHg 88%
    15:00 +3°C° 0 mm 2 mps 610 mmHg 90%
    16:00 +3°C° 0 mm 2 mps 610 mmHg 92%
    17:00 +2°C° 0 mm 2 mps 609 mmHg 93%
    18:00 +1°C° 0 mm 2 mps 609 mmHg 94%
    19:00 -2°C° 0 mm 2 mps 608 mmHg 95%
    20:00 -2°C° 0 mm 2 mps 608 mmHg 96%
    21:00 -2°C° 0 mm 2 mps 608 mmHg 96%
    22:00 -2°C° 0 mm 2 mps 608 mmHg 96%
    23:00 -2°C° 0 mm 2 mps 607 mmHg 96%

    24 February, Friday

    Time Temperature Precipitation Wind Pressure Humidity
    00:00 -3°C° 0 mm 2 mps 607 mmHg 95%
    01:00 -3°C° 0 mm 2 mps 606 mmHg 95%
    02:00 -3°C° 0.2 mm 2 mps 606 mmHg 95%
    03:00 -3°C° 0.2 mm 2 mps 605 mmHg 95%
    04:00 -1°C° 0.2 mm 1 mps 605 mmHg 94%
    05:00 -1°C° 0.8 mm 1 mps 605 mmHg 95%
    06:00 -1°C° 0.8 mm 1 mps 605 mmHg 96%
    07:00 -1°C° 0.8 mm 1 mps 605 mmHg 96%
    08:00 -3°C° 0.9 mm 2 mps 605 mmHg 96%
    09:00 -4°C° 0.9 mm 2 mps 605 mmHg 95%
    10:00 -4°C° 0.9 mm 2 mps 606 mmHg 94%
    11:00 -5°C° 0.6 mm 3 mps 605 mmHg 93%
    12:00 -7°C° 0.6 mm 4 mps 605 mmHg 92%
    13:00 -7°C° 0.6 mm 4 mps 605 mmHg 91%
    14:00 -8°C° 0.3 mm 4 mps 605 mmHg 90%
    15:00 -8°C° 0.3 mm 4 mps 605 mmHg 90%
    16:00 -9°C° 0.3 mm 4 mps 606 mmHg 89%
    17:00 -9°C° 0.4 mm 4 mps 606 mmHg 90%
    18:00 -9°C° 0.4 mm 3 mps 607 mmHg 91%
    19:00 -10°C° 0.4 mm 3 mps 607 mmHg 93%
    20:00 -10°C° 0.4 mm 3 mps 608 mmHg 93%
    21:00 -10°C° 0.4 mm 3 mps 609 mmHg 93%
    22:00 -10°C° 0.4 mm 3 mps 610 mmHg 93%
    23:00 -10°C° 0.5 mm 3 mps 611 mmHg 93%

    25 February, Saturday

    Time Temperature Precipitation Wind Pressure Humidity
    00:00 -10°C° 0.5 mm 3 mps 611 mmHg 93%
    01:00 -10°C° 0.5 mm 3 mps 612 mmHg 93%
    02:00 -10°C° 0.1 mm 2 mps 612 mmHg 93%
    03:00 -10°C° 0.1 mm 2 mps 612 mmHg 93%
    04:00 -10°C° 0.1 mm 2 mps 613 mmHg 94%
    05:00 -12°C° 0.1 mm 2 mps 613 mmHg 94%
    06:00 -12°C° 0.1 mm 2 mps 613 mmHg 94%
    07:00 -13°C° 0.1 mm 2 mps 614 mmHg 94%
    08:00 -10°C° 0 mm 2 mps 614 mmHg 91%
    09:00 -9°C° 0 mm 2 mps 615 mmHg 89%
    10:00 -7°C° 0 mm 2 mps 616 mmHg 87%
    11:00 -6°C° 0 mm 2 mps 616 mmHg 85%
    12:00 -4°C° 0 mm 2 mps 616 mmHg 84%
    13:00 -1°C° 0 mm 1 mps 617 mmHg 82%
    14:00 -1°C° 0.1 mm 1 mps 617 mmHg 85%
    15:00 0°C° 0.1 mm 1 mps 617 mmHg 87%
    16:00 0°C° 0.1 mm 1 mps 616 mmHg 89%
    17:00 -1°C° 0.2 mm 1 mps 616 mmHg 90%
    18:00 -2°C° 0.2 mm 1 mps 616 mmHg 91%
    19:00 -3°C° 0.2 mm 1 mps 616 mmHg 92%
    20:00 -2°C° 0.8 mm 1 mps 616 mmHg 92%
    21:00 -2°C° 0.8 mm 1 mps 617 mmHg 92%
    22:00 -1°C° 0.8 mm 1 mps 617 mmHg 93%
    23:00 -1°C° 0.9 mm 1 mps 617 mmHg 93%
    Show more